Regional Weather Roundup
Issued by NWS

Home | Current Version | Previous Version | Text Only | Print | Product List | Glossary Off
Versions: 1 2 3 4 5 6 7 8 9 10 11 12 13 14 15 16 17 18 19 20 21 22 23 24 25 26 27 28 29 30 31 32 33 34 35 36 37 38 39 40 41 42 43 44 45 46 47 48 49 50

000
ASUS43 KDMX 251206
RWRIA

WEATHER ROUNDUP FOR IOWA
NATIONAL WEATHER SERVICE DES MOINES IA
600 AM CST SUN FEB 25 2018

NOTE: "FAIR" INDICATES FEW OR NO CLOUDS BELOW 12,000 FEET WITH NO
SIGNIFICANT WEATHER AND/OR OBSTRUCTIONS TO VISIBILITY.

* - THESE STATIONS ARE NOT NWS STATIONS...THUS NOT UNDER NWS
QUALITY CONTROL.  THEY ALSO DO NOT REPORT WEATHER SUCH
AS PRECIPITATION OR FOG.

IAZ001>003-012>014-020>022-031>034-043>046-251300-
   NORTHWEST IOWA

CITY           SKY/WX    TMP DP  RH WIND       PRES   REMARKS
CARROLL *      PTCLDY    21  14  73 MISG      29.81S
CHEROKEE *     PTCLDY    13   9  83 SW5       29.78S WCI   6
DENISON *      CLEAR     18  12  79 SW6       29.84R WCI   9
LE MARS *      CLEAR     14   9  79 S8        29.78S WCI   3
ORANGE CITY *  CLEAR     16  12  86 SW10      29.75S WCI   3
SHELDON *      CLEAR     12   9  85 SW9       29.73R WCI   0
SIOUX CITY     CLEAR     18   9  68 W10       29.81S WCI   6
6HR MIN TEMP:   9; 6HR MAX TEMP:  19;

SPENCER        CLEAR     14   7  73 SW9       29.74R WCI   2
6HR MIN TEMP:  11; 6HR MAX TEMP:  16;

STORM LAKE *   CLEAR     18  10  73 W16       29.76S WCI   3
$$

IAZ055>058-069>071-079>083-090>094-251300-
   SOUTHWEST IOWA

CITY           SKY/WX    TMP DP  RH WIND       PRES   REMARKS
ATLANTIC *     CLEAR     21  19  93 SW12      29.88R WCI   9
AUDUBON *      CLEAR     19  16  86 SW7       29.84R WCI  10
CLARINDA *     CLEAR     25  23  93 SW9       29.96R WCI  15
COUNCIL BLFS * CLEAR     21  21 100 SW13      29.89R WCI   9
CRESTON *      CLEAR     23  18  80 SW12      29.90R WCI  12
LAMONI         CLEAR     24  19  81 SW10      29.92R WCI  14
6HR MIN TEMP:  24; 6HR MAX TEMP:  30;

RED OAK *      CLEAR     23  19  86 SW13      29.92R WCI  11
SHENANDOAH *   CLEAR     25  21  86 SW9       29.95R WCI  15
$$

IAZ047>049-059>061-072>074-084-251300-
   CENTRAL IOWA

CITY           SKY/WX    TMP DP  RH WIND       PRES   REMARKS
AMES           CLEAR     22  16  78 W15       29.83R WCI   9
6HR MIN TEMP:  22; 6HR MAX TEMP:  30;

ANKENY *       CLEAR     23  18  80 VRB6      29.87R WCI  16
BOONE *        CLEAR     21  16  79 W13G18    29.81R WCI   9
CHARITON *     CLEAR     27  18  69 SW7G14    29.90R WCI  19
DES MOINES     CLEAR     24  17  74 W10       29.86R WCI  14
6HR MIN TEMP:  23; 6HR MAX TEMP:  31;

GRINNELL*      CLEAR     25  20  79 W14G22    29.84R WCI  14
KNOXVILLE *    CLEAR     25  18  74 SW9       29.87R WCI  15
MARSHALLTOWN   CLEAR     22  17  81 W15       29.81R WCI   9
6HR MIN TEMP:  22; 6HR MAX TEMP:  30;

NEWTON *       CLEAR     25  18  74 W16       29.85R WCI  12
PELLA *        CLEAR     26  19  73 W12       29.89R WCI  16
PERRY *        FAIR      21  17  84 SW9       29.84S WCI  10
$$

IAZ004>006-015-016-023>025-035-036-251300-
   NORTH CENTRAL IOWA

CITY           SKY/WX    TMP DP  RH WIND       PRES   REMARKS
ALGONA *       CLEAR     12 N/A N/A SW14      29.74S WCI  -3
CLARION *      CLEAR     12  12 100 SW15      29.79R WCI  -4
ESTHERVILLE    CLEAR     12   8  84 W22       29.70R WCI  -7
6HR MIN TEMP:  10; 6HR MAX TEMP:  16; 6HR PCP: TRACE;

FORT DODGE *   CLEAR     14   9  80 SW9       29.80R WCI   2
MASON CITY     CLEAR     13  10  88 W21       29.75R WCI  -5
6HR MIN TEMP:  13; 6HR MAX TEMP:  22; 6HR PCP: TRACE;

FOREST CITY *  FAIR      14  10  85 W7        29.74R WCI   4
WEBSTER CITY * CLEAR     18  12  79 W18       29.77S WCI   2
IOWA FALLS *   FAIR      20  15  81 W20       29.79S WCI   5
$$

IAZ007>011-017>019-026>030-037>042-050>054-066-251300-
   NORTHEAST IOWA

CITY           SKY/WX    TMP DP  RH WIND       PRES   REMARKS
CEDAR RAPIDS   FAIR      26  21  81 W15       29.82R WCI  14
6HR MIN TEMP:  25; 6HR MAX TEMP:  32;

CHARLES CITY * MOCLDY    18  18 100 SW16G22   29.76R WCI   3
CLINTON *      CLOUDY    31  26  82 W23G29    29.79R WCI  18
DECORAH *      CLOUDY    19  18  93 W13G23    29.70R WCI   7
DUBUQUE        CLOUDY    25  21  85 W21G28    29.74R WCI  11
6HR MIN TEMP:  25; 6HR MAX TEMP:  32;

MONTICELLO *   FAIR      25  18  74 W20G31    29.78R WCI  11
OELWEIN *      CLOUDY    19  19 100 W16G23    29.78R WCI   5
WATERLOO       FAIR      18  15  88 W14       29.79R WCI   4
6HR MIN TEMP:  18; 6HR MAX TEMP:  28;

$$

IAZ064-065-067-068-078-251300-
   EAST CENTRAL IOWA

CITY           SKY/WX    TMP DP  RH WIND       PRES   REMARKS
DAVENPORT      FAIR      31  22  69 W22G37    29.83R WCI  18
6HR MIN TEMP:  31; 6HR MAX TEMP:  35;

IOWA CITY      FAIR      29  22  75 W13       29.86R WCI  19
6HR MIN TEMP:  29; 6HR MAX TEMP:  34;

MT. PLEASANT * CLEAR     30  27  86 W10       29.89R WCI  21
MUSCATINE *    MOCLDY    32  25  74 W17       29.86R WCI  21
QUAD CITIES    MOCLDY    33  27  78 W13       29.83R WCI  24
6HR MIN TEMP:  33; 6HR MAX TEMP:  35;

$$

IAZ062-063-075>077-085>089-095>099-251300-
   SOUTHEAST IOWA

CITY           SKY/WX    TMP DP  RH WIND       PRES   REMARKS
BURLINGTON     PTCLDY    31  25  78 W10       29.88R WCI  22
6HR MIN TEMP:  31; 6HR MAX TEMP:  33;

FAIRFIELD *    CLEAR     28  21  74 W12G17    29.88R WCI  18
FORT MADISON * CLEAR     30  27  86 W9        29.90R WCI  22
KEOKUK *       CLEAR     32  25  74 W13       29.91R WCI  22
OSKALOOSA *    FAIR      27  22  79 W15       29.89R WCI  16
OTTUMWA        CLEAR     27  19  72 W10       29.89R WCI  17
6HR MIN TEMP:  27; 6HR MAX TEMP:  32;

WASHINGTON *   CLEAR     30  28  93 W13G20    29.87R WCI  20
$$

ABBREVIATIONS USED IN REMARKS
   TC - TEMPERATURES IN CELSIUS
  WCI - WIND CHILL INDEX
   HX - HEAT INDEX
  VSB - VISIBILITY
$$




USA.gov is the U.S. government's official web portal to all federal, state and local government web resources and services.